This demonstration page uses our WeatherBlox Daily Observations layout. Learn more.

Left ArrowRight Arrow

Hourly Observations for November 30, 2021

Temp ( °F °C ) Dew Point ( °F °C ) Humidity (%) Winds ( mph kmh ) Pressure ( in mb ) Visibility ( mi km ) Precip ( " mm )
12:51 am 00:51 Clear 42 5.6 23 -5 47 47 E 3 6 30.05 1018 10 16 0.00 0.00
1:51 am 01:51 Clear 42 5.6 24 -4.4 49 49 WNW 5 7 30.05 1018 10 16 0.00 0.00
2:51 am 02:51 Clear 37 2.8 23 -5 57 57 N 6 9 30.06 1018 10 16 0.00 0.00
3:51 am 03:51 Clear 39 3.9 25 -3.9 57 57 SSE 5 7 30.05 1018 10 16 0.00 0.00
4:51 am 04:51 Clear 39 3.9 25 -3.9 57 57 ESE 5 7 30.06 1018 10 16 0.00 0.00
5:51 am 05:51 Clear 42 5.6 26 -3.3 53 53 ESE 7 11 30.07 1018 10 16 0.00 0.00
6:51 am 06:51 Clear 40 4.4 25 -3.9 55 55 Calm 30.11 1020 10 16 0.00 0.00
7:51 am 07:51 Sunny 44 6.7 27 -2.8 51 51 Calm 30.13 1020 10 16 0.00 0.00
8:51 am 08:51 Sunny 50 10 31 -0.6 48 48 Calm 30.14 1021 10 16 0.00 0.00
9:51 am 09:51 Sunny 50 10 32 0 50 50 N 3 6 30.15 1021 10 16 0.00 0.00
10:51 am 10:51 Sunny 53 11.7 30 -1.1 41 41 N 5 7 30.13 1020 10 16 0.00 0.00
12:51 pm 12:51 Sunny 62 16.7 30 -1.1 30 30 NNW 5 7 30.05 1018 10 16 0.00 0.00
1:51 pm 13:51 Sunny 65 18.3 30 -1.1 27 27 NNW 5 7 30.03 1017 10 16 0.00 0.00
2:51 pm 14:51 Sunny 70 21.1 31 -0.6 23 23 NW 7 11 30.01 1016 10 16 0.00 0.00
3:51 pm 15:51 Sunny 70 21.1 31 -0.6 23 23 WNW 7 11 30.01 1016 10 16 0.00 0.00
4:51 pm 16:51 Sunny 66 18.9 31 -0.6 27 27 WNW 7 11 30.01 1016 10 16 0.00 0.00
5:51 pm 17:51 Clear 56 13.3 30 -1.1 37 37 N 7 11 30.05 1018 10 16 0.00 0.00
6:51 pm 18:51 Clear 55 12.8 30 -1.1 38 38 N 5 7 30.07 1018 10 16 0.00 0.00
7:51 pm 19:51 Clear 52 11.1 28 -2.2 40 40 SSE 5 7 30.09 1019 10 16 0.00 0.00
8:51 pm 20:51 Clear 48 8.9 27 -2.8 44 44 S 5 7 30.10 1019 10 16 0.00 0.00
9:51 pm 21:51 Clear 45 7.2 26 -3.3 48 48 Calm 30.11 1020 10 16 0.00 0.00
10:51 pm 22:51 Clear 45 7.2 26 -3.3 48 48 NE 6 9 30.12 1020 10 16 0.00 0.00
11:51 pm 23:51 Clear 40 4.4 25 -3.9 55 55 Calm 30.13 1020 10 16 0.00 0.00

Powered by AerisWeather